User: anonymous   Login
Location: Malvern Link
(52.1333°N, 2.3000°W)
Time: 15:54:11
(UTC+00:00)
Language:

Cosmos 1634 Rocket - Orbit

View from above orbital plane
View from above orbital plane
View from above satellite
View from above satellite

Ground track
Ground track

The orbit data is extracted from the following two-line orbital elements,

1 15598U 85022B   22266.86433010 -.00000010  00000-0 -25900-4 0  9991
2 15598  82.9342 116.4733 0023076 124.4723 247.7672 13.76615892885266
Epoch (UTC): 23 September 2022 20:44:38
Eccentricity: 0.0023076
inclination: 82.9342°
perigee height: 959 km
apogee height: 993 km
right ascension of ascending node: 116.4733°
argument of perigee: 124.4723°
revolutions per day: 13.76615892
mean anomaly at epoch: 247.7672°
orbit number at epoch: 88526

The dashed part of the orbit path shows where the satellite is in the earth's shadow,  

DLR